DW5656 Weather Reports


Display with metric or nautical units.
time (UTC)temp
F
wind
direction
speed
MPH
gust
MPH
rain 1hr
in
rain 24hr
in
rain mn
in
humidity
%
barometer
mb
20181021173730 71 101 3.0 6.0 0.00 0.03 0.00 67 1015.9
20181021172830 72 104 3.0 7.0 0.00 0.04 0.00 66 1015.9
20181021171929 72 103 3.0 8.0 0.00 0.06 0.00 64 1015.8
20181021171030 72 104 2.0 6.0 0.00 0.06 0.00 63 1015.8
20181021170130 72 113 3.0 3.0 0.00 0.06 0.00 63 1015.5
20181021165230 72 134 4.0 7.0 0.00 0.06 0.00 63 1015.5
20181021164329 72 118 4.0 8.0 0.00 0.07 0.00 62 1015.7
20181021163429 73 124 3.0 7.0 0.00 0.07 0.00 64 1015.6
20181021162530 73 144 2.0 8.0 0.00 0.08 0.00 64 1015.6
20181021161630 73 150 3.0 7.0 0.00 0.09 0.00 64 1015.6
20181021160729 73 144 3.0 7.0 0.00 0.09 0.00 63 1015.7
20181021155829 73 150 4.0 8.0 0.00 0.09 0.00 65 1015.8
20181021154930 72 127 5.0 9.0 0.00 0.09 0.00 65 1015.7
20181021154029 72 138 6.0 11.0 0.00 0.09 0.00 71 1015.8
20181021153129 73 118 4.0 11.0 0.00 0.09 0.00 70 1015.7
20181021152230 73 102 4.0 11.0 0.00 0.09 0.00 69 1015.7
20181021151329 73 127 3.0 7.0 0.00 0.10 0.00 68 1015.7
20181021150430 72 143 3.0 8.0 0.00 0.10 0.00 68 1015.9
20181021145529 73 121 2.0 8.0 0.00 0.17 0.00 67 1016.0
20181021144630 72 148 2.0 6.0 0.00 0.20 0.00 67 1015.9
20181021143730 72 107 1.0 5.0 0.00 0.21 0.00 66 1015.7
20181021142829 73 87 1.0 3.0 0.00 0.21 0.00 66 1015.3
20181021141929 72 95 3.0 4.0 0.00 0.21 0.00 68 1015.4
20181021141029 71 109 3.0 8.0 0.00 0.21 0.00 69 1015.5
20181021140129 71 121 5.0 9.0 0.00 0.21 0.00 70 1015.7
20181021135229 71 120 6.0 12.0 0.00 0.21 0.00 71 1015.8
20181021134329 71 108 4.0 12.0 0.00 0.21 0.00 70 1015.9
20181021133429 72 112 4.0 9.0 0.00 0.24 0.00 71 1016.0
20181021132529 71 135 5.0 9.0 0.00 0.28 0.00 71 1016.0
20181021131629 71 118 5.0 12.0 0.00 0.28 0.00 72 1016.1
20181021130729 71 113 5.0 10.0 0.00 0.28 0.00 73 1016.2
20181021125830 70 105 6.0 11.0 0.00 0.28 0.00 75 1016.3
20181021124929 69 94 5.0 10.0 0.00 0.30 0.00 76 1016.6
20181021124029 68 84 4.0 9.0 0.00 0.32 0.00 79 1016.7
20181021123129 67 95 5.0 9.0 0.00 0.32 0.00 81 1016.9
20181021122229 67 99 5.0 10.0 0.00 0.32 0.00 81 1017.0
20181021121329 67 93 6.0 11.0 0.00 0.32 0.00 80 1017.1
20181021120429 68 91 6.0 13.0 0.00 0.32 0.00 80 1017.1
20181021115529 68 95 5.0 13.0 0.00 0.32 0.00 80 1017.0
20181021114629 67 98 6.0 11.0 0.00 0.32 0.00 80 1017.2
20181021113729 67 105 6.0 12.0 0.00 0.32 0.00 81 1017.4
20181021112829 66 107 6.0 10.0 0.00 0.32 0.00 81 1017.5
20181021111929 66 107 5.0 12.0 0.00 0.32 0.00 81 1017.4
20181021111029 66 96 6.0 12.0 0.00 0.33 0.00 81 1017.4
20181021110129 66 99 5.0 13.0 0.00 0.33 0.00 82 1017.4
20181021105229 66 102 6.0 13.0 0.00 0.33 0.00 83 1017.3
20181021104329 66 99 6.0 12.0 0.00 0.34 0.00 84 1017.2
20181021103429 65 98 4.0 12.0 0.00 0.34 0.00 84 1017.3
20181021102529 65 90 4.0 9.0 0.00 0.35 0.00 85 1017.4
20181021101629 65 102 3.0 8.0 0.00 0.35 0.00 85 1017.4
20181021100729 65 106 3.0 9.0 0.00 0.35 0.00 87 1017.4
20181021095829 64 76 2.0 6.0 0.00 0.35 0.00 87 1017.4
20181021094929 64 94 2.0 4.0 0.00 0.35 0.00 88 1017.5
20181021094029 64 78 2.0 5.0 0.00 0.35 0.00 88 1017.5
20181021093129 64 77 2.0 5.0 0.00 0.35 0.00 88 1017.4
20181021092229 63 61 2.0 5.0 0.00 0.35 0.00 88 1017.2
20181021091329 63 75 3.0 6.0 0.00 0.35 0.00 88 1017.1
20181021090429 63 57 3.0 6.0 0.00 0.35 0.00 89 1017.0
20181021085529 63 50 3.0 6.0 0.00 0.35 0.00 89 1017.0
20181021084629 63 46 3.0 6.0 0.00 0.35 0.00 89 1016.9
20181021083729 63 38 3.0 7.0 0.00 0.35 0.00 89 1016.8
20181021082829 63 49 3.0 6.0 0.00 0.35 0.00 89 1016.5
20181021081929 62 43 3.0 5.0 0.00 0.35 0.00 89 1016.5
20181021081029 62 36 4.0 7.0 0.00 0.35 0.00 89 1016.4
20181021080129 62 45 4.0 5.0 0.00 0.35 0.00 89 1016.1
20181021075229 62 45 4.0 9.0 0.00 0.35 0.00 89 1016.2
20181021074329 62 35 3.0 6.0 0.00 0.35 0.00 89 1016.0
20181021073429 62 43 2.0 5.0 0.00 0.35 0.00 89 1015.9
20181021072529 62 15 2.0 5.0 0.00 0.35 0.00 89 1015.8
20181021071629 62 32 2.0 4.0 0.00 0.35 0.00 89 1015.8
20181021070729 62 48 3.0 4.0 0.00 0.35 0.00 89 1015.7
20181021065829 62 60 3.0 7.0 0.00 0.35 0.00 89 1015.6
20181021064929 62 41 3.0 7.0 0.00 0.35 0.00 89 1015.3
20181021064029 62 26 3.0 7.0 0.00 0.35 0.00 89 1015.4
20181021063129 62 12 1.0 7.0 0.00 0.35 0.00 90 1015.2
20181021062229 62 17 2.0 4.0 0.00 0.35 0.00 90 1015.1
20181021061329 62 31 2.0 5.0 0.00 0.35 0.00 90 1015.0
20181021060429 62 54 2.0 5.0 0.00 0.35 0.00 90 1014.9
20181021055529 62 72 3.0 5.0 0.00 0.35 0.00 91 1014.9
20181021054629 62 62 3.0 7.0 0.00 0.35 0.00 91 1014.9
20181021053729 62 71 3.0 7.0 0.00 0.35 0.00 91 1015.2
20181021052829 62 28 1.0 6.0 0.00 0.35 0.00 91 1014.8
20181021051929 62 30 2.0 3.0 0.00 0.35 0.00 91 1015.0
20181021051029 62 32 3.0 4.0 0.00 0.35 0.00 91 1014.9
20181021050129 62 41 3.0 7.0 0.00 0.35 0.00 91 1014.8
20181021045229 62 29 3.0 7.0 0.00 0.35 0.00 91 1014.8
20181021044329 62 22 3.0 5.0 0.00 0.35 0.00 91 1014.9
20181021043429 62 36 4.0 8.0 0.00 0.35 0.00 90 1014.8
20181021042529 62 39 4.0 7.0 0.00 0.35 0.00 90 1014.8
20181021041629 62 37 3.0 8.0 0.00 0.35 0.00 90 1014.8
20181021040729 62 29 2.0 6.0 0.00 0.35 0.00 90 1014.8
20181021035829 62 12 3.0 4.0 0.00 0.35 0.00 90 1014.7
20181021034929 62 37 3.0 6.0 0.00 0.35 0.00 90 1014.6
20181021034029 62 35 2.0 6.0 0.00 0.35 0.00 90 1014.5
20181021033129 62 28 3.0 7.0 0.00 0.35 0.00 91 1014.5
20181021032229 61 40 2.0 5.0 0.00 0.35 0.00 91 1014.5
20181021031329 61 36 1.0 4.0 0.00 0.35 0.00 91 1014.5
20181021030429 61 45 2.0 4.0 0.00 0.35 0.00 91 1014.6
20181021025529 61 41 3.0 5.0 0.00 0.35 0.00 91 1014.5
20181021024629 61 48 5.0 8.0 0.00 0.35 0.00 91 1014.4
20181021023729 61 40 4.0 9.0 0.00 0.35 0.00 91 1014.3
20181021022829 61 38 3.0 8.0 0.00 0.35 0.00 92 1014.4
20181021021929 61 33 1.0 7.0 0.00 0.35 0.00 92 1014.6
20181021021029 61 26 1.0 3.0 0.00 0.35 0.00 91 1014.8
20181021020129 60 38 3.0 5.0 0.00 0.35 0.00 91 1014.7
20181021015229 60 27 3.0 5.0 0.00 0.35 0.00 91 1014.7
20181021014329 60 21 3.0 5.0 0.00 0.35 0.00 91 1014.6
20181021013429 60 18 3.0 5.0 0.00 0.35 0.00 91 1014.7
20181021012529 60 346 3.0 5.0 0.00 0.35 0.00 91 1014.8
20181021011629 60 357 3.0 6.0 0.00 0.35 0.00 91 1014.7
20181021010729 60 347 3.0 6.0 0.00 0.35 0.00 91 1014.6
20181021005829 60 305 2.0 6.0 0.00 0.35 0.00 91 1014.9
20181021004929 60 14 3.0 5.0 0.00 0.35 0.00 91 1014.7
20181021004029 60 28 2.0 5.0 0.00 0.35 0.00 91 1014.8
20181021003129 60 355 2.0 4.0 0.00 0.35 0.00 90 1014.8
20181021002229 61 342 2.0 5.0 0.00 0.35 0.00 90 1014.7
20181021001328 61 15 2.0 4.0 0.00 0.35 0.00 90 1014.7
20181021000428 61 27 2.0 4.0 0.00 0.35 0.00 90 1014.8
20181020235528 61 22 2.0 4.0 0.00 0.35 0.00 90 1014.7
20181020234628 61 22 1.0 3.0 0.00 0.35 0.00 89 1014.9
20181020233728 61 22 1.0 3.0 0.00 0.35 0.00 89 1014.8
20181020232828 61 23 2.0 3.0 0.00 0.35 0.00 89 1014.8
20181020231928 61 30 0.0 4.0 0.00 0.35 0.00 89 1014.8
20181020231028 61 0 0.0 0.0 0.00 0.35 0.00 89 1014.9
20181020230128 61 0 0.0 0.0 0.00 0.35 0.00 89 1015.0
20181020225228 61 0 0.0 0.0 0.00 0.35 0.00 89 1015.1
20181020224328 61 0 0.0 0.0 0.00 0.35 0.00 89 1015.2
20181020223428 61 0 0.0 0.0 0.00 0.35 0.00 89 1015.1
20181020222528 61 61 1.0 1.0 0.00 0.35 0.00 88 1015.1
20181020221628 61 61 1.0 3.0 0.00 0.35 0.00 88 1015.1
20181020220728 61 60 1.0 3.0 0.00 0.35 0.00 88 1014.9
20181020215828 61 66 1.0 3.0 0.00 0.35 0.35 88 1014.9
20181020214928 61 101 2.0 5.0 0.00 0.35 0.35 88 1015.0
20181020214028 61 84 3.0 7.0 0.00 0.35 0.35 88 1015.0
20181020213128 61 83 3.0 8.0 0.00 0.35 0.35 87 1014.9
20181020212228 61 73 3.0 7.0 0.01 0.35 0.35 87 1014.9
20181020211328 61 51 3.0 5.0 0.01 0.35 0.35 86 1014.7
20181020210428 61 41 4.0 5.0 0.01 0.35 0.35 86 1014.5
20181020205528 61 37 3.0 9.0 0.01 0.35 0.35 86 1014.4
20181020204628 61 16 1.0 6.0 0.01 0.35 0.35 87 1014.4
20181020203728 61 349 1.0 3.0 0.01 0.35 0.35 88 1014.3
20181020202828 61 338 2.0 3.0 0.00 0.35 0.35 88 1014.3
20181020201928 61 27 2.0 4.0 0.00 0.35 0.35 88 1014.1
20181020201028 61 55 2.0 4.0 0.00 0.35 0.35 88 1014.2
20181020200128 61 67 2.0 6.0 0.00 0.35 0.35 89 1014.1
20181020195228 61 58 3.0 6.0 0.00 0.35 0.35 89 1014.0
20181020194328 61 60 3.0 8.0 0.00 0.35 0.35 89 1013.9
20181020193428 61 45 3.0 8.0 0.01 0.35 0.35 89 1013.9
20181020192528 61 61 4.0 10.0 0.01 0.35 0.35 89 1014.0
20181020191628 61 75 4.0 9.0 0.02 0.35 0.35 89 1014.1
20181020190728 61 69 5.0 12.0 0.02 0.35 0.35 89 1014.0
20181020185828 61 79 5.0 10.0 0.02 0.35 0.35 89 1014.2
20181020184928 61 55 5.0 11.0 0.02 0.35 0.35 89 1013.8
20181020184028 61 69 4.0 10.0 0.02 0.34 0.34 88 1014.0
20181020183128 61 70 3.0 9.0 0.02 0.34 0.34 89 1014.1
20181020182228 61 54 3.0 8.0 0.03 0.34 0.34 89 1013.8
20181020181328 60 7 2.0 8.0 0.03 0.33 0.33 89 1013.9
20181020180428 60 217 3.0 5.0 0.02 0.32 0.32 89 1014.0
20181020175528 60 87 3.0 8.0 0.03 0.32 0.32 89 1013.8
20181020174628 60 97 4.0 8.0 0.04 0.32 0.32 89 1013.6